Location: Altleiningen
(49.5078°N, 8.0741°E)
Time: 00:00:11
(UTC+00:00)

SAR-Lupe-1 - Pass Details

Date: 03 March 2021
Orbit: 482 x 483 km, 98.2° (Epoch: 30 March)

Event Time Altitude Azimuth Distance (km) Brightness Sun altitude
Rises 18:23:47 0° 15° (NNE) 2,561 7.6 -12.1°
Reaches altitude 10° 18:25:52 10° 17° (NNE) 1,675 6.7 -12.5°
Maximum altitude 18:29:28 77° 104° (ESE) 502 3.9 -13.1°
Drops below altitude 10° 18:33:02 10° 191° (S) 1,661 6.8 -13.6°
Sets 18:35:05 0° 192° (SSW) 2,536 7.8 -14.0°
